GW5571 Weather Reports


time (UTC)temp
F
wind
direction
speed
knots
gust
knots
rain 1hr
in
rain 24hr
in
rain mn
in
humidity
%
barometer
mb
20260504214047 76 168 0.0 0.9 0.00 0.00 0.00 29 1009.6
20260504213544 75 172 0.0 0.9 0.00 0.00 0.00 29 1009.7
20260504213041 75 202 0.9 1.7 0.00 0.00 0.00 28 1009.8
20260504212537 76 229 0.9 1.7 0.00 0.00 0.00 27 1009.8
20260504212034 75 329 0.9 1.7 0.00 0.00 0.00 29 1009.9
20260504211531 75 208 0.9 2.6 0.00 0.00 0.00 28 1010.0
20260504211028 75 308 1.7 2.6 0.00 0.00 0.00 28 1009.9
20260504210525 76 245 0.9 2.6 0.00 0.00 0.00 28 1009.9
20260504210022 76 283 1.7 5.2 0.00 0.00 0.00 28 1010.0
20260504205520 76 228 0.0 1.7 0.00 0.00 0.00 28 1009.8
20260504205018 77 256 1.7 7.0 0.00 0.00 0.00 27 1009.8
20260504204515 76 233 0.9 1.7 0.00 0.00 0.00 27 1009.7
20260504204014 76 320 3.5 3.5 0.00 0.00 0.00 27 1009.6
20260504203512 76 194 0.9 5.2 0.00 0.00 0.00 27 1009.8
20260504203009 76 223 0.0 3.5 0.00 0.00 0.00 27 1009.7
20260504202504 76 135 0.9 2.6 0.00 0.00 0.00 28 1009.7
20260504202001 77 183 0.9 2.6 0.00 0.00 0.00 28 1009.8
20260504201458 76 172 1.7 2.6 0.00 0.00 0.00 27 1009.7
20260504200956 75 238 0.9 1.7 0.00 0.00 0.00 28 1009.8
20260504200452 76 312 1.7 2.6 0.00 0.00 0.00 28 1009.9
20260504195949 76 305 0.9 3.5 0.00 0.00 0.00 27 1009.9
20260504195445 76 173 0.0 1.7 0.00 0.00 0.00 28 1010.2
20260504194942 76 213 0.9 1.7 0.00 0.00 0.00 28 1010.1
20260504194438 76 143 2.6 7.8 0.00 0.00 0.00 28 1010.2
20260504193934 76 106 0.9 2.6 0.00 0.00 0.00 28 1010.1
20260504193431 76 263 2.6 3.5 0.00 0.00 0.00 28 1010.5
20260504192930 76 42 1.7 3.5 0.00 0.00 0.00 28 1010.5
20260504192427 76 91 0.0 3.5 0.00 0.00 0.00 28 1010.4
20260504191926 76 258 0.9 2.6 0.00 0.00 0.00 28 1010.5
20260504191424 76 286 1.7 1.7 0.00 0.00 0.00 28 1010.5
20260504190918 76 163 1.7 5.2 0.00 0.00 0.00 30 1010.5
20260504190414 77 329 2.6 6.1 0.00 0.00 0.00 27 1010.8
20260504185911 76 55 1.7 2.6 0.00 0.00 0.00 28 1010.9
20260504185409 76 265 1.7 3.5 0.00 0.00 0.00 27 1010.9
20260504184904 75 293 1.7 2.6 0.00 0.00 0.00 30 1010.9
20260504184400 75 184 0.9 3.5 0.00 0.00 0.00 29 1011.2
20260504183856 75 216 1.7 6.1 0.00 0.00 0.00 29 1011.2
20260504183354 76 243 3.5 6.1 0.00 0.00 0.00 28 1011.2
20260504182851 76 157 0.9 1.7 0.00 0.00 0.00 28 1011.2
20260504182348 76 259 2.6 3.5 0.00 0.00 0.00 29 1011.2
20260504181845 76 164 0.9 1.7 0.00 0.00 0.00 29 1011.3
20260504181343 75 169 1.7 2.6 0.00 0.00 0.00 29 1011.3
20260504180841 75 98 0.0 1.7 0.00 0.00 0.00 29 1011.5
20260504180339 73 341 3.5 6.1 0.00 0.00 0.00 31 1011.5
20260504175837 74 155 2.6 2.6 0.00 0.00 0.00 30 1011.6
20260504175334 74 143 0.0 5.2 0.00 0.00 0.00 29 1011.7
20260504174832 75 341 3.5 6.1 0.00 0.00 0.00 29 1011.6
20260504174329 75 251 1.7 5.2 0.00 0.00 0.00 28 1011.6
20260504173826 74 182 0.9 1.7 0.00 0.00 0.00 31 1011.7
20260504173323 73 229 1.7 3.5 0.00 0.00 0.00 31 1012.0
20260504172820 73 181 2.6 7.8 0.00 0.00 0.00 31 1011.9
20260504172316 73 324 1.7 9.6 0.00 0.00 0.00 31 1012.0
20260504171812 74 137 0.9 5.2 0.00 0.00 0.00 32 1012.0
20260504171310 74 174 0.9 3.5 0.00 0.00 0.00 31 1012.2
20260504170807 73 245 0.9 3.5 0.00 0.00 0.00 31 1012.3
20260504170303 72 123 1.7 3.5 0.00 0.00 0.00 32 1012.2
20260504160222 72 237 2.6 7.0 0.00 0.00 0.00 29 1013.0
20260504150653 69 154 0.9 2.6 0.00 0.00 0.00 37 1013.6
20260504150149 69 177 1.7 5.2 0.00 0.00 0.00 37 1013.6
20260504141118 65 154 1.7 2.6 0.00 0.00 0.00 41 1013.8
20260504140615 65 175 6.1 7.8 0.00 0.00 0.00 41 1013.8
20260504140110 65 318 1.7 2.6 0.00 0.00 0.00 41 1013.9
20260504130539 59 182 1.7 1.7 0.00 0.00 0.00 52 1014.5
20260504110426 48 165 0.9 1.7 0.00 0.00 0.00 73 1015.2
20260504100343 44 192 0.0 0.9 0.00 0.00 0.00 72 1015.1
20260504081736 42 169 0.0 0.0 0.00 0.00 0.00 70 1014.8
20260504081233 42 169 0.0 0.0 0.00 0.00 0.00 70 1014.9
20260504080729 42 169 0.0 0.0 0.00 0.00 0.00 69 1014.8
20260504080226 42 169 0.0 0.0 0.00 0.00 0.00 69 1014.7
20260504070153 44 167 0.0 0.0 0.00 0.00 0.00 65 1014.5
20260504060114 45 167 0.0 0.0 0.00 0.00 0.00 61 1014.5
20260504050542 46 155 0.0 0.9 0.00 0.00 0.00 58 1014.2
20260504045536 46 153 0.0 0.0 0.00 0.00 0.00 58 1014.1
20260504045031 45 152 0.0 0.0 0.00 0.00 0.00 59 1014.1
20260504044529 45 152 0.0 0.0 0.00 0.00 0.00 59 1014.1
20260504044026 45 152 0.0 0.0 0.00 0.00 0.00 59 1013.9
20260504043523 46 152 0.0 0.0 0.00 0.00 0.00 59 1014.1
20260504043020 46 152 0.0 0.0 0.00 0.00 0.00 59 1014.0
20260504042517 46 152 0.0 0.0 0.00 0.00 0.00 59 1013.9
20260504042014 46 152 0.0 0.0 0.00 0.00 0.00 58 1013.9
20260504041510 47 152 0.0 0.0 0.00 0.00 0.00 56 1013.7
20260504041006 47 152 0.0 0.0 0.00 0.00 0.00 56 1013.8
20260504040504 47 152 0.0 0.0 0.00 0.00 0.00 55 1013.8
20260504035959 47 152 0.0 0.0 0.00 0.00 0.00 55 1013.8
20260504035457 47 152 0.0 0.0 0.00 0.00 0.00 55 1013.6
20260504034953 47 152 0.0 0.0 0.00 0.00 0.00 55 1013.6
20260504034451 47 152 0.0 0.0 0.00 0.00 0.00 55 1013.7
20260504033948 47 151 0.0 0.0 0.00 0.00 0.00 56 1013.6
20260504033446 46 155 0.0 0.0 0.00 0.00 0.00 56 1013.5
20260504032943 46 155 0.0 0.0 0.00 0.00 0.00 58 1013.5
20260504032440 45 155 0.0 0.0 0.00 0.00 0.00 60 1013.5
20260504031936 44 152 0.0 0.0 0.00 0.00 0.00 62 1013.5
20260504031433 44 158 0.0 0.0 0.00 0.00 0.00 64 1013.4
20260504030930 44 159 0.0 0.0 0.00 0.00 0.00 64 1013.7
20260504030427 44 143 0.0 0.0 0.00 0.00 0.00 62 1013.6
20260504025923 44 167 0.0 0.0 0.00 0.00 0.00 64 1013.6
20260504025420 44 147 0.0 0.0 0.00 0.00 0.00 65 1013.4
20260504024917 44 147 0.0 0.0 0.00 0.00 0.00 64 1013.5
20260504024414 44 147 0.0 0.0 0.00 0.00 0.00 64 1013.4
20260504023911 44 146 0.0 0.0 0.00 0.00 0.00 64 1013.4
20260504023407 44 146 0.0 0.0 0.00 0.00 0.00 62 1013.4
20260504022903 44 146 0.0 0.0 0.00 0.00 0.00 61 1013.4
20260504022400 44 146 0.0 0.0 0.00 0.00 0.00 61 1013.5
20260504021856 45 146 0.0 0.0 0.00 0.00 0.00 60 1013.4
20260504021354 45 152 0.0 0.0 0.00 0.00 0.00 60 1013.4
20260504020850 45 159 0.0 0.0 0.00 0.00 0.00 61 1013.5
20260504020347 45 159 0.0 0.0 0.00 0.00 0.00 61 1013.6
20260504015843 45 159 0.0 0.0 0.00 0.00 0.00 60 1013.5
20260504015340 46 159 0.0 0.0 0.00 0.00 0.00 58 1013.4
20260504014836 46 159 0.0 0.0 0.00 0.00 0.00 57 1013.4
20260504014332 46 159 0.0 0.0 0.00 0.00 0.00 56 1013.4
20260504013830 46 159 0.0 0.0 0.00 0.00 0.00 56 1013.2
20260504013327 47 159 0.0 0.0 0.00 0.00 0.00 55 1013.2
20260504012824 47 159 0.0 0.0 0.00 0.00 0.00 56 1013.1
20260504012322 47 159 0.0 0.0 0.00 0.00 0.00 55 1013.2
20260504011819 48 159 0.0 0.0 0.00 0.00 0.00 55 1013.1
20260504011315 48 159 0.0 0.0 0.00 0.00 0.00 55 1013.1
20260504010811 48 159 0.0 0.0 0.00 0.00 0.00 54 1012.9
20260504010307 49 159 0.0 0.0 0.00 0.00 0.00 52 1012.7
20260504005804 49 159 0.0 0.0 0.00 0.00 0.00 51 1012.7
20260504005301 50 159 0.0 0.0 0.00 0.00 0.00 51 1012.7
20260504004758 50 157 0.0 0.0 0.00 0.00 0.00 50 1012.7
20260504004256 50 166 0.0 0.0 0.00 0.00 0.00 50 1012.5
20260504003752 50 167 0.0 0.0 0.00 0.00 0.00 49 1012.6
20260504003249 51 157 0.0 0.0 0.00 0.00 0.00 48 1012.5
20260504002745 51 157 0.0 0.0 0.00 0.00 0.00 49 1012.4
20260504002242 52 157 0.0 0.0 0.00 0.00 0.00 48 1012.3
20260504001740 52 157 0.0 0.0 0.00 0.00 0.00 47 1012.2
20260504001237 53 157 0.0 0.0 0.00 0.00 0.00 43 1012.2
20260504000734 54 157 0.0 0.0 0.00 0.00 0.00 43 1012.2
20260504000231 54 157 0.0 0.0 0.00 0.00 0.00 42 1012.2
20260503235729 54 155 0.0 0.0 0.00 0.00 0.00 40 1012.1
20260503235226 55 155 0.0 0.0 0.00 0.00 0.00 38 1012.0
20260503234723 55 155 0.0 0.0 0.00 0.00 0.00 37 1011.9
20260503234222 56 155 0.0 0.0 0.00 0.00 0.00 36 1011.9
20260503233718 56 154 0.0 0.0 0.00 0.00 0.00 36 1012.0
20260503233214 57 170 0.0 0.0 0.00 0.00 0.00 35 1011.8
20260503232711 57 170 0.0 0.0 0.00 0.00 0.00 34 1011.7
20260503232208 57 170 0.0 1.7 0.00 0.00 0.00 34 1011.9
20260503231707 58 167 0.0 0.0 0.00 0.00 0.00 33 1011.8
20260503231202 58 187 0.9 0.9 0.00 0.00 0.00 33 1011.8
20260503230659 58 173 0.0 0.9 0.00 0.00 0.00 33 1011.6
20260503230156 58 147 0.0 0.9 0.00 0.00 0.00 33 1011.7
20260503225653 59 144 0.0 0.9 0.00 0.00 0.00 33 1011.7
20260503225154 59 214 0.9 0.9 0.00 0.00 0.00 32 1011.6
20260503224651 59 154 0.0 0.0 0.00 0.00 0.00 34 1011.6
20260503224149 59 142 0.0 0.9 0.00 0.00 0.00 31 1011.6
20260503223647 59 320 1.7 2.6 0.00 0.00 0.00 31 1011.5
20260503223143 59 144 0.0 0.9 0.00 0.00 0.00 31 1011.5
20260503222640 59 68 0.0 2.6 0.00 0.00 0.00 33 1011.5
20260503222138 59 102 1.7 1.7 0.00 0.00 0.00 32 1011.6
20260503221636 59 336 0.9 1.7 0.00 0.00 0.00 31 1011.5
20260503221133 60 117 2.6 7.0 0.00 0.00 0.00 31 1011.4
20260503220630 60 341 1.7 3.5 0.00 0.00 0.00 29 1011.5
20260503220126 60 166 0.0 6.1 0.00 0.00 0.00 29 1011.5
20260503215624 60 132 1.7 2.6 0.00 0.00 0.00 30 1011.6
20260503215120 60 130 0.9 3.5 0.00 0.00 0.00 30 1011.6
20260503214619 61 174 0.0 1.7 0.00 0.00 0.00 29 1011.7